Simultaneous Nadir Overpasses (SNOs) Predictions

Prediction of SNOs between AURA and NPP Satellite Orbit:

Table of predicted SNOs for the next 14.0 days since TLE Epoch: 12/5/2014
Index Date (AURA) Time (AURA) Lat,Lon (AURA) SZA (AURA ) Date (NPP) Time (NPP) Lat,Lon (NPP) SZA (NPP ) Distance(km) Time Diff (sec)
1 12/07/2014 21:56:45 -76.74, -85.55 62.45 12/07/2014 21:55:41 -76.73, -85.62 62.38 1.69 64
2 12/07/2014 22:45:48 77.77, 86.14 116.42 12/07/2014 22:46:01 77.77, 86.21 116.39 1.74 13
3 12/10/2014 14:13:02 -77.18, 31.97 62.61 12/10/2014 14:12:23 -77.18, 31.96 62.58 0.18 39
4 12/10/2014 15:02:13 77.83,-157.69 116.66 12/10/2014 15:02:52 77.82,-157.78 116.65 2.36 39
5 12/13/2014 06:29:22 -77.36, 148.60 62.55 12/13/2014 06:29:10 -77.35, 148.49 62.52 2.90 12
6 12/13/2014 07:18:28 78.23, -39.95 116.46 12/13/2014 07:19:33 78.23, -39.90 116.40 1.06 65
7 12/15/2014 21:56:21 77.23, 96.33 117.82 12/15/2014 21:55:19 77.24, 96.44 117.85 2.89 62
8 12/15/2014 22:45:34 -77.89, -93.28 62.93 12/15/2014 22:45:49 -77.89, -93.21 62.96 1.76 15
9 12/18/2014 14:12:36 77.56,-146.41 117.61 12/18/2014 14:12:03 77.57,-146.31 117.61 2.59 33




NCC Satellite Simultaneous Nadir Overpasses (SNOs) Prediction Service
